W0AVQ Weather Reports


time (UTC)temp
C
wind
direction
speed
KPH
gust
KPH
rain 1hr
cm
rain 24hr
cm
rain mn
cm
humidity
%
barometer
mb
20260504160216 25 260 1.6 1.6 0.00 0.00 0.00 49 1011.9
20260504151144 22 228 4.8 11.3 0.00 0.00 0.00 62 1012.1
20260504150642 22 186 0.0 1.6 0.00 0.00 0.00 64 1012.1
20260504150138 22 198 0.0 0.0 0.00 0.00 0.00 63 1012.3
20260504141108 21 218 0.0 0.0 0.00 0.00 0.00 67 1012.7
20260504140604 20 297 0.0 0.0 0.00 0.00 0.00 68 1012.7
20260504130528 18 232 0.0 0.0 0.00 0.00 0.00 75 1013.0
20260504110416 14 251 0.0 0.0 0.00 0.00 0.00 84 1012.3
20260504100332 15 240 0.0 0.0 0.00 0.00 0.00 79 1012.3
20260504081726 16 214 0.0 0.0 0.00 0.00 0.00 73 1012.2
20260504081222 16 177 4.8 8.0 0.00 0.00 0.00 73 1011.8
20260504080718 16 206 0.0 0.0 0.00 0.00 0.00 74 1011.8
20260504080215 16 180 1.6 3.2 0.00 0.00 0.00 74 1012.1
20260504070143 17 193 0.0 0.0 0.00 0.00 0.00 72 1012.5
20260504060103 17 190 1.6 4.8 0.00 0.00 0.00 70 1013.1
20260504050531 17 176 3.2 8.0 0.00 0.00 0.00 68 1013.5
20260504045525 17 235 3.2 3.2 0.00 0.00 0.00 67 1013.6
20260504045021 17 225 0.0 1.6 0.00 0.00 0.00 67 1013.7
20260504044518 17 179 6.4 9.7 0.00 0.00 0.00 66 1013.4
20260504044015 17 256 0.0 0.0 0.00 0.00 0.00 66 1013.6
20260504043512 18 202 8.0 12.9 0.00 0.00 0.00 65 1013.7
20260504043010 18 219 0.0 3.2 0.00 0.00 0.00 65 1013.8
20260504042506 18 237 0.0 1.6 0.00 0.00 0.00 65 1013.7
20260504042003 18 235 1.6 3.2 0.00 0.00 0.00 64 1013.7
20260504041459 18 214 0.0 0.0 0.00 0.00 0.00 63 1013.6
20260504040955 18 179 0.0 0.0 0.00 0.00 0.00 63 1013.7
20260504040453 18 173 1.6 3.2 0.00 0.00 0.00 62 1013.8
20260504035949 18 227 0.0 0.0 0.00 0.00 0.00 62 1013.8
20260504035447 18 148 1.6 8.0 0.00 0.00 0.00 62 1013.7
20260504034943 18 171 4.8 8.0 0.00 0.00 0.00 61 1014.1
20260504034440 18 219 1.6 1.6 0.00 0.00 0.00 61 1014.0
20260504033937 18 209 0.0 0.0 0.00 0.00 0.00 61 1014.0
20260504033435 18 176 1.6 8.0 0.00 0.00 0.00 61 1014.0
20260504032932 18 228 0.0 0.0 0.00 0.00 0.00 60 1013.6
20260504032429 18 201 0.0 1.6 0.00 0.00 0.00 60 1014.2
20260504031925 18 188 8.0 11.3 0.00 0.00 0.00 60 1014.1
20260504031422 18 222 0.0 1.6 0.00 0.00 0.00 60 1014.3
20260504030919 18 244 0.0 0.0 0.00 0.00 0.00 60 1014.0
20260504030416 18 254 0.0 0.0 0.00 0.00 0.00 59 1014.0
20260504025912 18 186 0.0 0.0 0.00 0.00 0.00 59 1014.1
20260504025409 18 258 0.0 0.0 0.00 0.00 0.00 58 1014.4
20260504024906 18 188 3.2 4.8 0.00 0.00 0.00 58 1014.2
20260504024403 18 188 0.0 0.0 0.00 0.00 0.00 58 1014.0
20260504023900 18 308 0.0 1.6 0.00 0.00 0.00 58 1013.9
20260504023356 18 184 0.0 1.6 0.00 0.00 0.00 58 1014.3
20260504022852 18 225 0.0 0.0 0.00 0.00 0.00 58 1013.9
20260504022349 18 207 0.0 0.0 0.00 0.00 0.00 57 1014.0
20260504021845 18 221 0.0 0.0 0.00 0.00 0.00 58 1013.9
20260504021343 18 171 0.0 3.2 0.00 0.00 0.00 58 1014.0
20260504020840 18 209 0.0 0.0 0.00 0.00 0.00 58 1014.0
20260504020336 18 203 0.0 0.0 0.00 0.00 0.00 57 1014.1
20260504015832 18 207 3.2 4.8 0.00 0.00 0.00 57 1013.9
20260504015329 18 195 0.0 0.0 0.00 0.00 0.00 57 1014.1
20260504014825 18 234 0.0 0.0 0.00 0.00 0.00 56 1013.9
20260504014321 18 186 0.0 0.0 0.00 0.00 0.00 56 1013.9
20260504013819 18 218 0.0 1.6 0.00 0.00 0.00 55 1013.9
20260504013317 18 238 0.0 0.0 0.00 0.00 0.00 55 1013.9
20260504012813 18 176 0.0 0.0 0.00 0.00 0.00 55 1013.7
20260504012311 19 239 0.0 0.0 0.00 0.00 0.00 55 1014.0
20260504011808 19 233 0.0 0.0 0.00 0.00 0.00 54 1013.9
20260504011304 19 211 0.0 0.0 0.00 0.00 0.00 54 1013.9
20260504010800 19 194 0.0 1.6 0.00 0.00 0.00 53 1013.9
20260504010256 19 194 1.6 1.6 0.00 0.00 0.00 53 1013.9
20260504005753 20 218 0.0 0.0 0.00 0.00 0.00 52 1013.8
20260504005250 20 225 0.0 0.0 0.00 0.00 0.00 52 1014.0
20260504004748 20 185 1.6 3.2 0.00 0.00 0.00 51 1013.6
20260504004245 20 183 1.6 4.8 0.00 0.00 0.00 50 1013.8
20260504003741 20 188 3.2 4.8 0.00 0.00 0.00 50 1013.8
20260504003238 20 169 3.2 3.2 0.00 0.00 0.00 49 1013.9
20260504002735 20 209 1.6 3.2 0.00 0.00 0.00 48 1014.0
20260504002231 20 189 0.0 0.0 0.00 0.00 0.00 48 1014.3
20260504001730 21 185 1.6 3.2 0.00 0.00 0.00 47 1014.2
20260504001226 21 199 0.0 0.0 0.00 0.00 0.00 46 1013.9
20260504000723 21 220 0.0 0.0 0.00 0.00 0.00 47 1014.0
20260504000220 21 211 4.8 8.0 0.00 0.00 0.00 45 1014.2
20260503235718 21 222 0.0 0.0 0.00 0.00 0.00 45 1014.3
20260503235215 21 186 0.0 0.0 0.00 0.00 0.00 44 1014.2
20260503234713 21 172 1.6 3.2 0.00 0.00 0.00 44 1014.5
20260503234211 21 187 4.8 9.7 0.00 0.00 0.00 44 1014.5
20260503233708 21 198 0.0 3.2 0.00 0.00 0.00 44 1014.5
20260503233203 21 222 4.8 4.8 0.00 0.00 0.00 42 1014.4
20260503232700 21 162 0.0 1.6 0.00 0.00 0.00 43 1014.3
20260503232157 21 213 3.2 4.8 0.00 0.00 0.00 41 1014.7
20260503231656 22 203 3.2 4.8 0.00 0.00 0.00 42 1014.4
20260503231151 22 236 0.0 0.0 0.00 0.00 0.00 42 1014.4
20260503230648 22 196 11.3 16.1 0.00 0.00 0.00 40 1014.5
20260503230145 22 187 1.6 3.2 0.00 0.00 0.00 41 1014.8
20260503225643 22 200 3.2 4.8 0.00 0.00 0.00 42 1014.8
20260503225143 22 239 3.2 4.8 0.00 0.00 0.00 42 1014.6
20260503224640 22 248 0.0 3.2 0.00 0.00 0.00 41 1014.8
20260503224138 22 222 0.0 1.6 0.00 0.00 0.00 41 1014.7
20260503223636 22 220 0.0 0.0 0.00 0.00 0.00 40 1014.8
20260503223132 22 178 6.4 8.0 0.00 0.00 0.00 41 1014.6
20260503222629 22 184 0.0 0.0 0.00 0.00 0.00 42 1015.0
20260503222127 22 202 4.8 8.0 0.00 0.00 0.00 42 1015.0
20260503221625 22 250 1.6 3.2 0.00 0.00 0.00 43 1015.2
20260503221122 21 223 0.0 1.6 0.00 0.00 0.00 42 1015.1
20260503220619 21 244 0.0 0.0 0.00 0.00 0.00 43 1015.4
20260503220115 21 219 8.0 11.3 0.00 0.00 0.00 42 1015.4
20260503215613 21 192 4.8 8.0 0.00 0.00 0.00 42 1015.3
20260503215109 22 189 1.6 4.8 0.00 0.00 0.00 43 1015.6
20260503214608 22 240 1.6 4.8 0.00 0.00 0.00 43 1015.6
20260503214104 22 202 0.0 0.0 0.00 0.00 0.00 41 1015.6
20260503213603 22 208 0.0 0.0 0.00 0.00 0.00 42 1015.9
20260503213058 21 149 1.6 4.8 0.00 0.00 0.00 41 1015.7
20260503212556 21 153 4.8 9.7 0.00 0.00 0.00 40 1015.7
20260503212053 21 142 8.0 11.3 0.00 0.00 0.00 41 1016.1
20260503211551 21 181 0.0 1.6 0.00 0.00 0.00 42 1016.0
20260503211046 21 225 4.8 4.8 0.00 0.00 0.00 42 1016.4
20260503210543 21 197 8.0 9.7 0.00 0.00 0.00 40 1016.2
20260503210038 21 164 3.2 4.8 0.00 0.00 0.00 42 1016.5
20260503205535 21 140 4.8 4.8 0.00 0.00 0.00 42 1016.6
20260503205032 21 218 11.3 14.5 0.00 0.00 0.00 42 1016.6
20260503204529 21 158 6.4 11.3 0.00 0.00 0.00 43 1016.5
20260503204026 21 203 4.8 8.0 0.00 0.00 0.00 43 1016.8
20260503203523 21 234 4.8 8.0 0.00 0.00 0.00 43 1016.8
20260503203020 21 203 1.6 4.8 0.00 0.00 0.00 44 1017.3
20260503202518 21 175 9.7 14.5 0.00 0.00 0.00 43 1017.2
20260503202016 21 175 11.3 12.9 0.00 0.00 0.00 43 1017.4
20260503201514 21 185 1.6 3.2 0.00 0.00 0.00 45 1017.5
20260503201011 21 235 3.2 3.2 0.00 0.00 0.00 44 1017.6
20260503200507 21 213 6.4 8.0 0.00 0.00 0.00 45 1017.6
20260503200004 20 186 19.3 32.2 0.00 0.00 0.00 43 1017.9
20260503195501 21 165 1.6 3.2 0.00 0.00 0.00 44 1017.8
20260503194957 21 187 4.8 8.0 0.00 0.00 0.00 44 1018.0
20260503194455 21 227 3.2 4.8 0.00 0.00 0.00 43 1018.2
20260503193949 20 199 0.0 1.6 0.00 0.00 0.00 45 1018.3
20260503193445 20 223 0.0 0.0 0.00 0.00 0.00 49 1018.3
20260503192941 20 203 4.8 9.7 0.00 0.00 0.00 45 1018.5
20260503192438 20 178 0.0 1.6 0.00 0.00 0.00 47 1018.4
20260503191933 20 222 3.2 3.2 0.00 0.00 0.00 43 1018.8
20260503191431 20 194 12.9 17.7 0.00 0.00 0.00 44 1019.0
20260503190927 20 187 0.0 1.6 0.00 0.00 0.00 49 1018.9
20260503190425 20 236 1.6 4.8 0.00 0.00 0.00 48 1019.3
20260503185922 20 163 4.8 4.8 0.00 0.00 0.00 49 1019.2
20260503185418 20 128 3.2 4.8 0.00 0.00 0.00 47 1019.3
20260503184917 20 222 14.5 22.5 0.00 0.00 0.00 46 1019.4
20260503184414 20 231 0.0 0.0 0.00 0.00 0.00 47 1019.4
20260503183910 20 207 3.2 4.8 0.00 0.00 0.00 47 1019.5
20260503183407 19 164 0.0 1.6 0.00 0.00 0.00 47 1020.0
20260503182904 20 221 11.3 12.9 0.00 0.00 0.00 47 1019.9
20260503182403 20 233 1.6 3.2 0.00 0.00 0.00 47 1019.8
20260503181900 19 177 12.9 14.5 0.00 0.00 0.00 46 1019.9
20260503181357 18 248 1.6 4.8 0.00 0.00 0.00 50 1020.1
20260503180853 18 281 4.8 8.0 0.00 0.00 0.00 48 1020.1
20260503180351 18 203 9.7 14.5 0.00 0.00 0.00 48 1020.2
20260503175847 19 204 0.0 1.6 0.00 0.00 0.00 46 1020.4
20260503175346 18 195 6.4 8.0 0.00 0.00 0.00 47 1020.5
20260503174841 19 199 1.6 1.6 0.00 0.00 0.00 49 1020.6
20260503174339 18 163 0.0 1.6 0.00 0.00 0.00 51 1021.0
20260503173834 18 230 3.2 4.8 0.00 0.00 0.00 50 1020.9
20260503173331 18 197 1.6 3.2 0.00 0.00 0.00 50 1021.1
20260503172827 18 201 6.4 9.7 0.00 0.00 0.00 49 1021.2
20260503172326 18 188 8.0 9.7 0.00 0.00 0.00 48 1021.2
20260503171821 18 223 6.4 9.7 0.00 0.00 0.00 48 1021.6
20260503171318 17 195 1.6 4.8 0.00 0.00 0.00 52 1021.5
20260503170816 18 175 6.4 9.7 0.00 0.00 0.00 49 1021.5
20260503170312 18 267 0.0 1.6 0.00 0.00 0.00 52 1021.5